,,,PA_Meas_PMT16A,,PR_Meas_QMR101_102,,RH_Meas_QMH101,,SR_Meas_QMS101,,TA_Meas_QMH101,,GenWind,,GenWind,
date,time,status,PA,status,PR,status,RH,status,SR,status,TA,status,DirAvg,status,SpdAvg,
2011-09-20, 00:00:04,VALID,1001.98,VALID,0,VALID,93.1958,VALID,0,VALID,23.7189,VALID,350,VALID,0.713281,
2011-09-20, 00:01:04,VALID,1001.98,VALID,0,VALID,93.2111,VALID,0,VALID,23.7597,VALID,350,VALID,0.75,
2011-09-20, 00:02:04,VALID,1001.93,VALID,0,VALID,93.2797,VALID,0,VALID,23.7402,VALID,350,VALID,0.595703,
2011-09-20, 00:03:04,VALID,1001.92,VALID,0,VALID,93.3026,VALID,0,VALID,23.7402,VALID,350,VALID,0.423828,
2011-09-20, 00:04:04,VALID,1001.9,VALID,0,VALID,93.3103,VALID,0,VALID,23.7402,VALID,350,VALID,0,
2011-09-20, 00:05:04,VALID,1001.9,VALID,0,VALID,93.3484,VALID,0,VALID,23.7207,VALID,350,VALID,0,
2011-09-20, 00:06:04,VALID,1001.89,VALID,0,VALID,93.3331,VALID,0,VALID,23.7207,VALID,350,VALID,0,
2011-09-20, 00:07:04,VALID,1001.88,VALID,0,VALID,93.3713,VALID,0,VALID,23.7207,VALID,350,VALID,0,
2011-09-20, 00:08:04,VALID,1001.87,VALID,0,VALID,93.3866,VALID,0.112286,VALID,23.7207,VALID,350,VALID,0,
2011-09-20, 00:09:04,VALID,1001.86,VALID,0,VALID,93.4018,VALID,0,VALID,23.7012,VALID,350,VALID,0,
2011-09-20, 00:10:04,VALID,1001.9,VALID,0,VALID,93.3942,VALID,0,VALID,23.7207,VALID,350,VALID,0,
2011-09-20, 00:11:04,VALID,1001.9,VALID,0,VALID,93.4171,VALID,0,VALID,23.7207,VALID,350,VALID,0,
2011-09-20, 00:12:04,VALID,1001.91,VALID,0,VALID,93.4323,VALID,0,VALID,23.7207,VALID,350,VALID,0,
2011-09-20, 00:13:04,VALID,1001.9,VALID,0,VALID,93.4247,VALID,0,VALID,23.7402,VALID,350,VALID,0,
2011-09-20, 00:14:04,VALID,1001.88,VALID,0,VALID,93.44,VALID,0,VALID,23.7207,VALID,350,VALID,0,
2011-09-20, 00:15:04,VALID,1001.88,VALID,0,VALID,93.4323,VALID,0,VALID,23.7402,VALID,350,VALID,0,
2011-09-20, 00:16:04,VALID,1001.87,VALID,0,VALID,93.4552,VALID,0,VALID,23.7597,VALID,350,VALID,0.704297,
2011-09-20, 00:17:04,VALID,1001.82,VALID,0,VALID,93.4552,VALID,0,VALID,23.7793,VALID,350,VALID,0.69375,
2011-09-20, 00:18:04,VALID,1001.85,VALID,0,VALID,93.4628,VALID,0,VALID,23.7988,VALID,80,VALID,0.839844,
2011-09-20, 00:19:04,VALID,1001.88,VALID,0,VALID,93.4171,VALID,0,VALID,23.7793,VALID,140,VALID,0.989453,
2011-09-20, 00:20:04,VALID,1001.87,VALID,0,VALID,93.4018,VALID,0,VALID,23.8183,VALID,141,VALID,1.0418,
2011-09-20, 00:21:04,VALID,1001.85,VALID,0,VALID,93.3637,VALID,0,VALID,23.8378,VALID,141,VALID,1.08086,
2011-09-20, 00:22:04,VALID,1001.85,VALID,0,VALID,93.3331,VALID,0,VALID,23.8573,VALID,141,VALID,1.10234,
2011-09-20, 00:23:04,VALID,1001.84,VALID,0,VALID,93.295,VALID,0,VALID,23.8768,VALID,141,VALID,1.22031,
2011-09-20, 00:24:04,VALID,1001.82,VALID,0,VALID,93.234,VALID,0,VALID,23.8963,VALID,141,VALID,1.16523,
2011-09-20, 00:25:04,VALID,1001.79,VALID,0,VALID,93.1577,VALID,0,VALID,23.8768,VALID,141,VALID,1.17188,
2011-09-20, 00:26:04,VALID,1001.76,VALID,0,VALID,93.0585,VALID,0,VALID,23.8963,VALID,141,VALID,0.980859,
2011-09-20, 00:27:04,VALID,1001.74,VALID,0,VALID,92.9745,VALID,0,VALID,23.8768,VALID,141,VALID,0.889844,
2011-09-20, 00:28:04,VALID,1001.72,VALID,0,VALID,92.8677,VALID,0,VALID,23.8573,VALID,141,VALID,0.409375,
2011-09-20, 00:29:04,VALID,1001.69,VALID,0,VALID,92.738,VALID,0,VALID,23.8573,VALID,141,VALID,0.598437,
2011-09-20, 00:30:04,VALID,1001.71,VALID,0,VALID,92.6617,VALID,0,VALID,23.8183,VALID,141,VALID,0.476563,
2011-09-20, 00:31:04,VALID,1001.64,VALID,0,VALID,92.5473,VALID,0,VALID,23.8183,VALID,141,VALID,0.414063,
2011-09-20, 00:32:04,VALID,1001.62,VALID,0,VALID,92.5091,VALID,0,VALID,23.7988,VALID,141,VALID,0.376563,
2011-09-20, 00:33:04,VALID,1001.59,VALID,0,VALID,92.4557,VALID,0,VALID,23.7793,VALID,141,VALID,0.573828,
2011-09-20, 00:34:04,VALID,1001.58,VALID,0,VALID,92.4328,VALID,0,VALID,23.7402,VALID,141,VALID,0.830078,
2011-09-20, 00:35:04,VALID,1001.57,VALID,0,VALID,92.4405,VALID,0,VALID,23.7012,VALID,98,VALID,1.13086,
2011-09-20, 00:36:04,VALID,1001.55,VALID,0,VALID,92.41,VALID,0,VALID,23.664,VALID,78,VALID,1.35039,
2011-09-20, 00:37:04,VALID,1001.54,VALID,0,VALID,92.4252,VALID,0,VALID,23.5859,VALID,78,VALID,1.12773,
2011-09-20, 00:38:04,VALID,1001.5,VALID,0,VALID,92.4939,VALID,0,VALID,23.5274,VALID,78,VALID,1.15,
2011-09-20, 00:39:04,VALID,1001.55,VALID,0,VALID,92.5854,VALID,0,VALID,23.4866,VALID,78,VALID,1.06602,
2011-09-20, 00:40:04,VALID,1001.53,VALID,0,VALID,92.7228,VALID,0,VALID,23.4671,VALID,76,VALID,1.28242,
2011-09-20, 00:41:04,VALID,1001.5,VALID,0,VALID,92.8296,VALID,0,VALID,23.4475,VALID,62,VALID,1.35469,
2011-09-20, 00:42:04,VALID,1001.5,VALID,0,VALID,92.9211,VALID,0,VALID,23.428,VALID,48,VALID,1.55313,
2011-09-20, 00:43:04,VALID,1001.53,VALID,0,VALID,93.0051,VALID,0,VALID,23.428,VALID,52,VALID,1.36367,
2011-09-20, 00:44:04,VALID,1001.52,VALID,0,VALID,93.0814,VALID,0,VALID,23.4085,VALID,49,VALID,1.3543,
2011-09-20, 00:45:04,VALID,1001.54,VALID,0,VALID,93.1424,VALID,0,VALID,23.389,VALID,49,VALID,1.18984,
2011-09-20, 00:46:04,VALID,1001.55,VALID,0,VALID,93.1958,VALID,0,VALID,23.4103,VALID,49,VALID,1.09531,
2011-09-20, 00:47:04,VALID,1001.51,VALID,0,VALID,93.2492,VALID,0,VALID,23.389,VALID,49,VALID,1.23945,
2011-09-20, 00:48:04,VALID,1001.5,VALID,0,VALID,93.3026,VALID,0,VALID,23.3695,VALID,49,VALID,1.26016,
2011-09-20, 00:49:04,VALID,1001.5,VALID,0,VALID,93.3103,VALID,0,VALID,23.3695,VALID,49,VALID,1.25703,
2011-09-20, 00:50:04,VALID,1001.47,VALID,0,VALID,93.356,VALID,0,VALID,23.3695,VALID,49,VALID,1.39375,
2011-09-20, 00:51:04,VALID,1001.52,VALID,0,VALID,93.3789,VALID,0,VALID,23.3305,VALID,27,VALID,1.34102,
2011-09-20, 00:52:04,VALID,1001.51,VALID,0,VALID,93.3942,VALID,0,VALID,23.311,VALID,25,VALID,0.811328,
2011-09-20, 00:53:04,VALID,1001.5,VALID,0,VALID,93.3942,VALID,0,VALID,23.2719,VALID,25,VALID,0.0363281,
2011-09-20, 00:54:04,VALID,1001.53,VALID,0,VALID,93.3713,VALID,0,VALID,23.2524,VALID,25,VALID,0,
2011-09-20, 00:55:04,VALID,1001.48,VALID,0,VALID,93.3637,VALID,0,VALID,23.2134,VALID,25,VALID,0.383984,
2011-09-20, 00:56:04,VALID,1001.5,VALID,0,VALID,93.3408,VALID,0,VALID,23.2134,VALID,25,VALID,0.791016,
2011-09-20, 00:57:04,VALID,1001.5,VALID,0,VALID,93.3255,VALID,0,VALID,23.1939,VALID,25,VALID,0.507031,
2011-09-20, 00:58:04,VALID,1001.46,VALID,0,VALID,93.3331,VALID,0,VALID,23.1744,VALID,25,VALID,0.526172,
2011-09-20, 00:59:04,VALID,1001.45,VALID,0,VALID,93.3103,VALID,0,VALID,23.1744,VALID,25,VALID,0.155078,
2011-09-20, 01:00:04,VALID,1001.45,VALID,0,VALID,93.3331,VALID,0,VALID,23.1549,VALID,25,VALID,0.0195313,
2011-09-20, 01:01:04,VALID,1001.41,VALID,0,VALID,93.3408,VALID,0,VALID,23.1549,VALID,25,VALID,0.114063,
2011-09-20, 01:02:04,VALID,1001.38,VALID,0,VALID,93.3637,VALID,0,VALID,23.1549,VALID,25,VALID,0,
2011-09-20, 01:03:04,VALID,1001.39,VALID,0,VALID,93.3866,VALID,0,VALID,23.1549,VALID,25,VALID,0,
2011-09-20, 01:04:04,VALID,1001.42,VALID,0,VALID,93.4094,VALID,0,VALID,23.1549,VALID,25,VALID,0,
2011-09-20, 01:05:04,VALID,1001.41,VALID,0,VALID,93.44,VALID,0,VALID,23.1354,VALID,25,VALID,0,
2011-09-20, 01:06:04,VALID,1001.4,VALID,0,VALID,93.4552,VALID,0,VALID,23.1354,VALID,25,VALID,0,
2011-09-20, 01:07:04,VALID,1001.38,VALID,0,VALID,93.4552,VALID,0,VALID,23.1159,VALID,25,VALID,0,
2011-09-20, 01:08:04,VALID,1001.37,VALID,0,VALID,93.4781,VALID,0,VALID,23.1159,VALID,25,VALID,0,
2011-09-20, 01:09:04,VALID,1001.37,VALID,0,VALID,93.4934,VALID,0,VALID,23.1159,VALID,25,VALID,0,
2011-09-20, 01:10:04,VALID,1001.36,VALID,0,VALID,93.501,VALID,0,VALID,23.1159,VALID,25,VALID,0,
2011-09-20, 01:11:04,VALID,1001.33,VALID,0,VALID,93.5315,VALID,0,VALID,23.0964,VALID,25,VALID,0,
2011-09-20, 01:12:04,VALID,1001.37,VALID,0,VALID,93.5086,VALID,0,VALID,23.0964,VALID,25,VALID,0,
2011-09-20, 01:13:04,VALID,1001.32,VALID,0,VALID,93.5315,VALID,0,VALID,23.0981,VALID,25,VALID,0,
2011-09-20, 01:14:04,VALID,1001.33,VALID,0,VALID,93.5239,VALID,0,VALID,23.0769,VALID,25,VALID,0,
2011-09-20, 01:15:04,VALID,1001.31,VALID,0,VALID,93.5239,VALID,0,VALID,23.0964,VALID,25,VALID,0,
2011-09-20, 01:16:04,VALID,1001.36,VALID,0,VALID,93.5391,VALID,0,VALID,23.1159,VALID,25,VALID,0,
2011-09-20, 01:17:04,VALID,1001.34,VALID,0,VALID,93.5239,VALID,0,VALID,23.1371,VALID,25,VALID,0,
2011-09-20, 01:18:04,VALID,1001.33,VALID,0,VALID,93.5468,VALID,0,VALID,23.1549,VALID,25,VALID,0.546484,
2011-09-20, 01:19:04,VALID,1001.33,VALID,0,VALID,93.5544,VALID,0,VALID,23.1957,VALID,25,VALID,0.645703,
2011-09-20, 01:20:04,VALID,1001.36,VALID,0,VALID,93.5697,VALID,0,VALID,23.2329,VALID,161,VALID,0.851172,
2011-09-20, 01:21:04,VALID,1001.38,VALID,0,VALID,93.5926,VALID,0,VALID,23.2524,VALID,161,VALID,0.982813,
2011-09-20, 01:22:04,VALID,1001.36,VALID,0,VALID,93.5544,VALID,0,VALID,23.2915,VALID,161,VALID,0.614062,
2011-09-20, 01:23:04,VALID,1001.36,VALID,0,VALID,93.5697,VALID,0,VALID,23.3518,VALID,161,VALID,0.0289063,
2011-09-20, 01:24:04,VALID,1001.37,VALID,0,VALID,93.5315,VALID,0,VALID,23.3287,VALID,161,VALID,0,
2011-09-20, 01:25:04,VALID,1001.37,VALID,0,VALID,93.4934,VALID,0,VALID,23.35,VALID,161,VALID,0,
2011-09-20, 01:26:04,VALID,1001.36,VALID,0,VALID,93.4552,VALID,0,VALID,23.3695,VALID,161,VALID,0,
2011-09-20, 01:27:04,VALID,1001.35,VALID,0,VALID,93.4018,VALID,0,VALID,23.35,VALID,161,VALID,0.323438,
2011-09-20, 01:28:04,VALID,1001.33,VALID,0,VALID,93.3408,VALID,0,VALID,23.3305,VALID,161,VALID,0.395703,
2011-09-20, 01:29:04,VALID,1001.31,VALID,0,VALID,93.2568,VALID,0,VALID,23.2915,VALID,161,VALID,0.0195313,
2011-09-20, 01:30:04,VALID,1001.3,VALID,0,VALID,93.2111,VALID,0,VALID,23.2719,VALID,161,VALID,0,
2011-09-20, 01:31:04,VALID,1001.27,VALID,0,VALID,93.1653,VALID,0,VALID,23.2719,VALID,161,VALID,0,
2011-09-20, 01:32:04,VALID,1001.26,VALID,0,VALID,93.1119,VALID,0,VALID,23.2524,VALID,161,VALID,0,
2011-09-20, 01:33:04,VALID,1001.25,VALID,0,VALID,93.0661,VALID,0,VALID,23.2134,VALID,161,VALID,0,
2011-09-20, 01:34:04,VALID,1001.24,VALID,0,VALID,93.0661,VALID,0,VALID,23.1939,VALID,161,VALID,0,
2011-09-20, 01:35:04,VALID,1001.25,VALID,0,VALID,93.028,VALID,0,VALID,23.1744,VALID,161,VALID,0,
2011-09-20, 01:36:04,VALID,1001.25,VALID,0,VALID,93.0051,VALID,0,VALID,23.1549,VALID,161,VALID,0,
2011-09-20, 01:37:04,VALID,1001.27,VALID,0,VALID,93.0432,VALID,0,VALID,23.1549,VALID,161,VALID,0,
2011-09-20, 01:38:04,VALID,1001.25,VALID,0,VALID,93.0661,VALID,0,VALID,23.1354,VALID,161,VALID,0,
2011-09-20, 01:39:04,VALID,1001.27,VALID,0,VALID,93.0966,VALID,0,VALID,23.1566,VALID,161,VALID,0,
2011-09-20, 01:40:04,VALID,1001.3,VALID,0,VALID,93.1348,VALID,0,VALID,23.1762,VALID,161,VALID,0,
2011-09-20, 01:41:04,VALID,1001.29,VALID,0,VALID,93.1653,VALID,0,VALID,23.1744,VALID,161,VALID,0,
2011-09-20, 01:42:04,VALID,1001.3,VALID,0,VALID,93.1882,VALID,0,VALID,23.1744,VALID,161,VALID,0,
2011-09-20, 01:43:04,VALID,1001.33,VALID,0,VALID,93.2187,VALID,0,VALID,23.1744,VALID,161,VALID,0,
2011-09-20, 01:44:04,VALID,1001.3,VALID,0,VALID,93.1958,VALID,0,VALID,23.2134,VALID,161,VALID,0,
2011-09-20, 01:45:04,VALID,1001.27,VALID,0,VALID,93.1119,VALID,0,VALID,23.2329,VALID,161,VALID,0,
2011-09-20, 01:46:04,VALID,1001.31,VALID,0,VALID,93.0585,VALID,0,VALID,23.2524,VALID,161,VALID,0,
2011-09-20, 01:47:04,VALID,1001.29,VALID,0,VALID,92.9822,VALID,0,VALID,23.2719,VALID,161,VALID,0,
2011-09-20, 01:48:04,VALID,1001.25,VALID,0,VALID,92.8525,VALID,0,VALID,23.2915,VALID,161,VALID,0,
2011-09-20, 01:49:04,VALID,1001.26,VALID,0,VALID,92.6694,VALID,0,VALID,23.3305,VALID,161,VALID,0,
2011-09-20, 01:50:04,VALID,1001.21,VALID,0,VALID,92.5168,VALID,0,VALID,23.3695,VALID,161,VALID,0.831641,
2011-09-20, 01:51:04,VALID,1001.23,VALID,0,VALID,92.3794,VALID,0,VALID,23.3695,VALID,161,VALID,0.807031,
2011-09-20, 01:52:04,VALID,1001.22,VALID,0,VALID,92.3566,VALID,0,VALID,23.3695,VALID,103,VALID,1.08125,
2011-09-20, 01:53:04,VALID,1001.19,VALID,0,VALID,92.3566,VALID,0,VALID,23.3695,VALID,77,VALID,1.10586,
2011-09-20, 01:54:04,VALID,1001.19,VALID,0,VALID,92.3489,VALID,0,VALID,23.35,VALID,77,VALID,0.789063,
2011-09-20, 01:55:04,VALID,1001.14,VALID,0,VALID,92.3718,VALID,0,VALID,23.35,VALID,77,VALID,0.641016,
2011-09-20, 01:56:04,VALID,1001.17,VALID,0,VALID,92.4023,VALID,0,VALID,23.35,VALID,77,VALID,0.799219,
2011-09-20, 01:57:04,VALID,1001.15,VALID,0,VALID,92.4252,VALID,0,VALID,23.35,VALID,77,VALID,1.03047,
2011-09-20, 01:58:04,VALID,1001.13,VALID,0,VALID,92.4481,VALID,0,VALID,23.3305,VALID,77,VALID,1.03516,
2011-09-20, 01:59:04,VALID,1001.18,VALID,0,VALID,92.4328,VALID,0,VALID,23.311,VALID,77,VALID,0.945313,
2011-09-20, 02:00:04,VALID,1001.18,VALID,0,VALID,92.3794,VALID,0,VALID,23.2915,VALID,77,VALID,0.948438,
2011-09-20, 02:01:04,VALID,1001.18,VALID,0,VALID,92.3718,VALID,0,VALID,23.2719,VALID,77,VALID,0.801172,
2011-09-20, 02:02:04,VALID,1001.17,VALID,0,VALID,92.3871,VALID,0,VALID,23.2719,VALID,77,VALID,0.705469,
2011-09-20, 02:03:04,VALID,1001.19,VALID,0,VALID,92.3871,VALID,0,VALID,23.2542,VALID,77,VALID,0.520703,
2011-09-20, 02:04:04,VALID,1001.16,VALID,0,VALID,92.41,VALID,0,VALID,23.2329,VALID,77,VALID,0.953125,
2011-09-20, 02:05:04,VALID,1001.15,VALID,0,VALID,92.3871,VALID,0,VALID,23.2134,VALID,77,VALID,0.761719,
2011-09-20, 02:06:04,VALID,1001.15,VALID,0,VALID,92.3871,VALID,0,VALID,23.2134,VALID,77,VALID,0.633984,
2011-09-20, 02:07:04,VALID,1001.1,VALID,0,VALID,92.4252,VALID,0,VALID,23.2134,VALID,77,VALID,0.833594,
2011-09-20, 02:08:04,VALID,1001.1,VALID,0,VALID,92.4557,VALID,0,VALID,23.2542,VALID,77,VALID,0.751953,
2011-09-20, 02:09:04,VALID,1001.08,VALID,0,VALID,92.4786,VALID,0,VALID,23.2542,VALID,77,VALID,0.909766,
2011-09-20, 02:10:04,VALID,1001.1,VALID,0,VALID,92.5015,VALID,0,VALID,23.2329,VALID,77,VALID,0.948438,
2011-09-20, 02:11:04,VALID,1001.09,VALID,0,VALID,92.5168,VALID,0,VALID,23.2524,VALID,77,VALID,0.672266,
2011-09-20, 02:12:04,VALID,1001.09,VALID,0,VALID,92.5244,VALID,0,VALID,23.2524,VALID,77,VALID,0.651563,
2011-09-20, 02:13:04,VALID,1001.08,VALID,0,VALID,92.5244,VALID,0,VALID,23.2524,VALID,77,VALID,0.961328,
2011-09-20, 02:14:04,VALID,1001.05,VALID,0,VALID,92.5091,VALID,0,VALID,23.2329,VALID,77,VALID,1.0707,
2011-09-20, 02:15:04,VALID,1001.09,VALID,0,VALID,92.5473,VALID,0,VALID,23.2329,VALID,77,VALID,0.801172,
2011-09-20, 02:16:04,VALID,1001.07,VALID,0,VALID,92.5626,VALID,0,VALID,23.2524,VALID,77,VALID,1.10352,
2011-09-20, 02:17:04,VALID,1001.09,VALID,0,VALID,92.6083,VALID,0,VALID,23.2737,VALID,77,VALID,1.01992,
2011-09-20, 02:18:04,VALID,1001.12,VALID,0,VALID,92.6617,VALID,0,VALID,23.2329,VALID,77,VALID,1.00039,
2011-09-20, 02:19:04,VALID,1001.12,VALID,0,VALID,92.6617,VALID,0,VALID,23.2524,VALID,350,VALID,0.791016,
2011-09-20, 02:20:04,VALID,1001.13,VALID,0,VALID,92.677,VALID,0,VALID,23.2524,VALID,344,VALID,0.879687,
2011-09-20, 02:21:04,VALID,1001.11,VALID,0,VALID,92.6923,VALID,0,VALID,23.2524,VALID,344,VALID,0.525781,
2011-09-20, 02:22:04,VALID,1001.1,VALID,0,VALID,92.6999,VALID,0,VALID,23.2524,VALID,344,VALID,0.451562,
2011-09-20, 02:23:04,VALID,1001.09,VALID,0,VALID,92.738,VALID,0,VALID,23.2329,VALID,344,VALID,0,
2011-09-20, 02:24:04,VALID,1001.08,VALID,0,VALID,92.7228,VALID,0,VALID,23.2329,VALID,344,VALID,0,
2011-09-20, 02:25:04,VALID,1001.09,VALID,0,VALID,92.7151,VALID,0,VALID,23.2134,VALID,344,VALID,0,
2011-09-20, 02:26:04,VALID,1001.07,VALID,0,VALID,92.6999,VALID,0,VALID,23.2134,VALID,344,VALID,0,
2011-09-20, 02:27:04,VALID,1001.07,VALID,0,VALID,92.6541,VALID,0,VALID,23.2134,VALID,344,VALID,0,
2011-09-20, 02:28:04,VALID,1001.06,VALID,0,VALID,92.6465,VALID,0,VALID,23.2134,VALID,344,VALID,0,
2011-09-20, 02:29:04,VALID,1001.04,VALID,0,VALID,92.6083,VALID,0,VALID,23.1939,VALID,344,VALID,0,
2011-09-20, 02:30:04,VALID,1001.02,VALID,0,VALID,92.5931,VALID,0,VALID,23.1531,VALID,344,VALID,0,
2011-09-20, 02:31:04,VALID,1001.02,VALID,0,VALID,92.5549,VALID,0,VALID,23.1744,VALID,344,VALID,0,
2011-09-20, 02:32:04,VALID,1001,VALID,0,VALID,92.5931,VALID,0,VALID,23.1336,VALID,344,VALID,0,
2011-09-20, 02:33:04,VALID,1000.96,VALID,0,VALID,92.616,VALID,0,VALID,23.1549,VALID,344,VALID,0,
2011-09-20, 02:34:04,VALID,1000.97,VALID,0,VALID,92.6236,VALID,0,VALID,23.1549,VALID,344,VALID,0,
2011-09-20, 02:35:04,VALID,1000.96,VALID,0,VALID,92.6236,VALID,0,VALID,23.1549,VALID,344,VALID,0,
2011-09-20, 02:36:04,VALID,1000.97,VALID,0,VALID,92.6694,VALID,0,VALID,23.1549,VALID,344,VALID,0,
2011-09-20, 02:37:04,VALID,1000.97,VALID,0,VALID,92.7304,VALID,0,VALID,23.1549,VALID,344,VALID,0,
2011-09-20, 02:38:04,VALID,1000.94,VALID,0,VALID,92.738,VALID,0,VALID,23.1354,VALID,344,VALID,0,
2011-09-20, 02:39:04,VALID,1000.99,VALID,0,VALID,92.7762,VALID,0,VALID,23.1354,VALID,344,VALID,0,
2011-09-20, 02:40:04,VALID,1000.99,VALID,0,VALID,92.7838,VALID,0,VALID,23.1371,VALID,344,VALID,0,
2011-09-20, 02:41:04,VALID,1001,VALID,0,VALID,92.7685,VALID,0,VALID,23.1354,VALID,344,VALID,0,
2011-09-20, 02:42:04,VALID,1000.97,VALID,0,VALID,92.7685,VALID,0,VALID,23.1354,VALID,344,VALID,0,
2011-09-20, 02:43:04,VALID,1001,VALID,0,VALID,92.7762,VALID,0,VALID,23.1549,VALID,344,VALID,0,
2011-09-20, 02:44:04,VALID,1000.98,VALID,0,VALID,92.7685,VALID,0,VALID,23.1549,VALID,344,VALID,0,
2011-09-20, 02:45:04,VALID,1000.97,VALID,0,VALID,92.7609,VALID,0,VALID,23.1549,VALID,344,VALID,0,
2011-09-20, 02:46:04,VALID,1000.97,VALID,0,VALID,92.7457,VALID,0,VALID,23.1549,VALID,344,VALID,0,
2011-09-20, 02:47:04,VALID,1000.98,VALID,0,VALID,92.7457,VALID,0,VALID,23.1762,VALID,345,VALID,0,
2011-09-20, 02:48:04,VALID,1000.96,VALID,0,VALID,92.7304,VALID,0,VALID,23.1549,VALID,345,VALID,0,
2011-09-20, 02:49:04,VALID,1000.99,VALID,0,VALID,92.7304,VALID,0,VALID,23.1354,VALID,345,VALID,0,
2011-09-20, 02:50:04,VALID,1000.97,VALID,0,VALID,92.7457,VALID,0,VALID,23.1354,VALID,345,VALID,0,
2011-09-20, 02:51:04,VALID,1000.96,VALID,0,VALID,92.7533,VALID,0,VALID,23.1159,VALID,345,VALID,0,
2011-09-20, 02:52:04,VALID,1000.96,VALID,0,VALID,92.7609,VALID,0,VALID,23.0769,VALID,345,VALID,0,
2011-09-20, 02:53:04,VALID,1000.96,VALID,0,VALID,92.7762,VALID,0,VALID,23.0964,VALID,345,VALID,0,
2011-09-20, 02:54:04,VALID,1000.94,VALID,0,VALID,92.7914,VALID,0,VALID,23.0769,VALID,345,VALID,0,
2011-09-20, 02:55:04,VALID,1000.91,VALID,0,VALID,92.8143,VALID,0,VALID,23.0981,VALID,345,VALID,0,
2011-09-20, 02:56:04,VALID,1000.93,VALID,0,VALID,92.8067,VALID,0,VALID,23.0769,VALID,345,VALID,0,
2011-09-20, 02:57:04,VALID,1000.93,VALID,0,VALID,92.8296,VALID,0,VALID,23.0769,VALID,345,VALID,0,
2011-09-20, 02:58:04,VALID,1000.94,VALID,0,VALID,92.8372,VALID,0,VALID,23.0769,VALID,345,VALID,0,
2011-09-20, 02:59:04,VALID,1000.93,VALID,0,VALID,92.8601,VALID,0,VALID,23.0769,VALID,345,VALID,0,
2011-09-20, 03:00:04,VALID,1000.93,VALID,0,VALID,92.8677,VALID,0,VALID,23.0769,VALID,345,VALID,0,
2011-09-20, 03:01:04,VALID,1000.95,VALID,0,VALID,92.8677,VALID,0,VALID,23.0573,VALID,345,VALID,0,
2011-09-20, 03:02:04,VALID,1000.92,VALID,0,VALID,92.8525,VALID,0,VALID,23.0573,VALID,345,VALID,0,
2011-09-20, 03:03:04,VALID,1000.89,VALID,0,VALID,92.8525,VALID,0,VALID,23.0573,VALID,345,VALID,0,
2011-09-20, 03:04:04,VALID,1000.93,VALID,0,VALID,92.8296,VALID,0,VALID,23.0573,VALID,345,VALID,0,
2011-09-20, 03:05:04,VALID,1000.94,VALID,0,VALID,92.822,VALID,0,VALID,23.0573,VALID,345,VALID,0,
2011-09-20, 03:06:04,VALID,1000.93,VALID,0,VALID,92.8296,VALID,0,VALID,23.0573,VALID,345,VALID,0,
2011-09-20, 03:07:04,VALID,1000.94,VALID,0,VALID,92.8448,VALID,0,VALID,23.0573,VALID,345,VALID,0,
2011-09-20, 03:08:04,VALID,1000.91,VALID,0,VALID,92.8754,VALID,0,VALID,23.0573,VALID,345,VALID,0,
2011-09-20, 03:09:04,VALID,1000.98,VALID,0,VALID,92.8906,VALID,0,VALID,23.0378,VALID,345,VALID,0,
2011-09-20, 03:10:04,VALID,1000.96,VALID,0,VALID,92.9211,VALID,0,VALID,23.0378,VALID,345,VALID,0,
2011-09-20, 03:11:04,VALID,1000.94,VALID,0,VALID,92.8983,VALID,0,VALID,23.0573,VALID,345,VALID,0,
2011-09-20, 03:12:04,VALID,1001,VALID,0,VALID,92.9211,VALID,0,VALID,23.0573,VALID,345,VALID,0,
2011-09-20, 03:13:04,VALID,1000.96,VALID,0,VALID,92.8983,VALID,0,VALID,23.1159,VALID,345,VALID,0,
2011-09-20, 03:14:04,VALID,1000.96,VALID,0,VALID,92.8525,VALID,0,VALID,23.1159,VALID,345,VALID,0,
2011-09-20, 03:15:04,VALID,1000.93,VALID,0,VALID,92.8296,VALID,0,VALID,23.1354,VALID,345,VALID,0,
2011-09-20, 03:16:04,VALID,1000.93,VALID,0,VALID,92.8067,VALID,0,VALID,23.1549,VALID,345,VALID,0,
2011-09-20, 03:17:04,VALID,1000.93,VALID,0,VALID,92.7914,VALID,0,VALID,23.1549,VALID,345,VALID,0,
2011-09-20, 03:18:04,VALID,1000.92,VALID,0,VALID,92.822,VALID,0,VALID,23.1549,VALID,345,VALID,0,
2011-09-20, 03:19:04,VALID,1000.91,VALID,0,VALID,92.8296,VALID,0,VALID,23.1744,VALID,345,VALID,0,
2011-09-20, 03:20:04,VALID,1000.88,VALID,0,VALID,92.8754,VALID,0,VALID,23.1744,VALID,345,VALID,0,
2011-09-20, 03:21:04,VALID,1000.87,VALID,0,VALID,92.9059,VALID,0,VALID,23.1744,VALID,345,VALID,0,
2011-09-20, 03:22:04,VALID,1000.88,VALID,0,VALID,92.9135,VALID,0,VALID,23.1549,VALID,345,VALID,0,
2011-09-20, 03:23:04,VALID,1000.85,VALID,0,VALID,92.9517,VALID,0,VALID,23.1549,VALID,345,VALID,0,
2011-09-20, 03:24:04,VALID,1000.87,VALID,0,VALID,92.9974,VALID,0,VALID,23.1549,VALID,345,VALID,0,
2011-09-20, 03:25:04,VALID,1000.83,VALID,0,VALID,93.0127,VALID,0,VALID,23.1549,VALID,345,VALID,0,
2011-09-20, 03:26:04,VALID,1000.84,VALID,0,VALID,93.028,VALID,0,VALID,23.1354,VALID,345,VALID,0,
2011-09-20, 03:27:04,VALID,1000.86,VALID,0,VALID,93.0737,VALID,0,VALID,23.1354,VALID,345,VALID,0,
2011-09-20, 03:28:04,VALID,1000.84,VALID,0,VALID,93.0661,VALID,0,VALID,23.1159,VALID,345,VALID,0.618359,
2011-09-20, 03:29:04,VALID,1000.83,VALID,0,VALID,93.0814,VALID,0,VALID,23.0964,VALID,347,VALID,0.7,
2011-09-20, 03:30:04,VALID,1000.84,VALID,0,VALID,93.1195,VALID,0,VALID,23.1159,VALID,347,VALID,0.624609,
2011-09-20, 03:31:04,VALID,1000.87,VALID,0,VALID,93.15,VALID,0,VALID,23.1159,VALID,347,VALID,0.681641,
2011-09-20, 03:32:04,VALID,1000.84,VALID,0,VALID,93.1271,VALID,0,VALID,23.0964,VALID,347,VALID,0.623438,
2011-09-20, 03:33:04,VALID,1000.86,VALID,0,VALID,93.1119,VALID,0,VALID,23.0964,VALID,347,VALID,0.592188,
2011-09-20, 03:34:04,VALID,1000.88,VALID,0,VALID,93.089,VALID,0,VALID,23.0964,VALID,347,VALID,0.671484,
2011-09-20, 03:35:04,VALID,1000.89,VALID,0,VALID,93.0508,VALID,0,VALID,23.0981,VALID,347,VALID,0.707422,
2011-09-20, 03:36:04,VALID,1000.88,VALID,0,VALID,93.0051,VALID,0,VALID,23.0769,VALID,347,VALID,0.516406,
2011-09-20, 03:37:04,VALID,1000.89,VALID,0,VALID,92.9517,VALID,0,VALID,23.0573,VALID,347,VALID,0.646094,
2011-09-20, 03:38:04,VALID,1000.88,VALID,0,VALID,92.8677,VALID,0,VALID,23.0378,VALID,347,VALID,0.573828,
2011-09-20, 03:39:04,VALID,1000.86,VALID,0,VALID,92.7914,VALID,0,VALID,22.9971,VALID,347,VALID,0.717578,
2011-09-20, 03:40:04,VALID,1000.84,VALID,0,VALID,92.738,VALID,0,VALID,23.0183,VALID,23,VALID,0.621875,
2011-09-20, 03:41:04,VALID,1000.83,VALID,0,VALID,92.6465,VALID,0,VALID,22.9988,VALID,23,VALID,0.569141,
2011-09-20, 03:42:04,VALID,1000.83,VALID,0,VALID,92.5931,VALID,0,VALID,22.9988,VALID,23,VALID,0.439844,
2011-09-20, 03:43:04,VALID,1000.82,VALID,0,VALID,92.5854,VALID,0,VALID,22.9793,VALID,23,VALID,0.201172,
2011-09-20, 03:44:04,VALID,1000.82,VALID,0,VALID,92.5626,VALID,0,VALID,22.9598,VALID,23,VALID,0.447656,
2011-09-20, 03:45:04,VALID,1000.82,VALID,0,VALID,92.5931,VALID,0.112286,VALID,22.9403,VALID,23,VALID,0.784375,
2011-09-20, 03:46:04,VALID,1000.81,VALID,0,VALID,92.6083,VALID,0,VALID,22.9403,VALID,23,VALID,0.926172,
2011-09-20, 03:47:04,VALID,1000.83,VALID,0,VALID,92.6541,VALID,0,VALID,22.9225,VALID,23,VALID,0.698047,
2011-09-20, 03:48:04,VALID,1000.82,VALID,0,VALID,92.6617,VALID,0,VALID,22.9013,VALID,23,VALID,0.517969,
2011-09-20, 03:49:04,VALID,1000.84,VALID,0,VALID,92.6846,VALID,0,VALID,22.8818,VALID,23,VALID,0.3375,
2011-09-20, 03:50:04,VALID,1000.86,VALID,0,VALID,92.7304,VALID,0,VALID,22.8427,VALID,23,VALID,0.280859,
2011-09-20, 03:51:04,VALID,1000.88,VALID,0,VALID,92.7457,VALID,0,VALID,22.8232,VALID,23,VALID,0,
2011-09-20, 03:52:04,VALID,1000.91,VALID,0,VALID,92.7762,VALID,0,VALID,22.8037,VALID,22,VALID,0,
2011-09-20, 03:53:04,VALID,1000.93,VALID,0,VALID,92.8067,VALID,0,VALID,22.8055,VALID,11,VALID,0.961719,